Vertical_Velocity
-1 -1 -1 -1 -1 -1 -2 -2 -2 -2 -2 -2 -2 -2 -1 -1 -1 -1 -1 -1 -1 -0 1 2 3 3 2 1 1 0 -0 -1 -0 -0 0 1 -0 -1 -1 -1 -0 1 2 2 3 3 4 4 4 4 5 6 6 7 10 11 10 11 12 13 15 15 15 14 12 11 8 5 4
-1 -1 -2 -2 -2 -1 -2 -2 -2 -2 -3 -2 -2 -1 -0 -0 -0 -0 -0 -1 -0 0 1 2 2 3 2 2 1 1 0 -0 -0 0 1 1 -0 -1 -1 -1 -1 -0 0 1 2 2 3 3 4 3 3 2 6 10 12 11 9 9 9 10 10 10 9 10 10 10 11 11 11
0 -0 -1 -2 -2 -2 -2 -2 -1 -1 -1 -1 -1 -0 -0 0 -0 -0 -0 0 1 1 0 0 1 1 1 2 2 2 1 0 0 1 1 1 -0 -1 -2 -0 0 0 -0 0 2 4 5 6 5 4 2 -1 1 5 8 8 8 7 7 7 6 6 5 4 4 6 8 10 12
1 1 0 -0 -1 -1 -1 -1 -1 -0 -0 -0 -1 -1 -1 -0 -0 0 0 0 -0 -0 -0 -0 0 0 1 1 2 2 1 1 1 1 1 1 -0 -1 -1 0 5 4 2 0 2 5 8 8 9 7 4 -0 -2 -2 0 4 6 7 6 5 3 1 -2 -5 -5 -4 -3 -0 2
2 2 1 1 1 1 0 0 0 1 1 1 -1 -2 -2 -1 -0 0 1 -0 -1 -0 1 1 1 1 0 -0 1 1 1 1 1 1 1 1 1 0 -0 0 1 3 5 6 3 4 6 9 10 9 7 2 -1 -2 -3 -1 2 4 6 7 5 1 -2 -5 -8 -7 -5 -3 -3
2 2 2 2 1 1 1 1 1 2 2 1 -1 -3 -3 -2 -1 0 1 1 1 1 1 1 1 -0 -0 -0 1 1 1 1 2 2 3 3 2 2 2 2 1 2 4 7 4 2 1 3 5 6 5 2 1 -0 -1 -1 -1 1 4 6 5 4 3 1 -2 -2 -1 -1 -1
2 2 1 1 1 1 1 1 1 2 2 1 -1 -2 -2 -1 -1 -0 1 2 1 1 1 1 -0 -1 -0 1 1 1 1 1 2 3 4 4 4 4 4 3 3 2 2 4 2 0 -1 -0 1 1 1 1 1 0 -0 -0 1 1 1 2 1 2 4 3 1 1 1 1 2
1 1 1 1 1 0 0 0 1 1 1 0 -0 -1 -1 -0 -1 -1 -0 -0 1 2 2 1 -0 -0 0 1 1 1 2 2 3 4 5 6 5 5 4 4 3 3 3 2 2 1 1 1 2 2 1 -1 -0 -0 -0 -1 -0 1 1 -1 -2 -1 -0 1 1 2 2 2 4
-0 -0 0 0 1 1 0 -0 -0 -1 -1 -0 0 1 1 -0 -1 -2 -2 -1 0 2 2 2 1 0 0 1 1 1 2 3 4 5 5 6 6 6 5 4 3 3 3 2 2 1 1 2 2 2 1 -0 -1 -2 -2 -3 -1 0 1 0 -1 -2 -2 -1 0 1 2 3 4
-1 -1 -1 -0 1 1 0 -0 -0 -1 -1 -0 1 2 2 1 0 -1 -1 -1 -0 1 2 2 2 1 0 1 1 1 2 3 4 5 6 6 6 6 5 4 4 3 3 2 2 1 1 -0 -0 -0 -0 -0 -1 -2 -3 -3 -1 1 2 2 2 0 -1 -2 -0 1 1 1 2
-1 -1 -1 -1 -0 0 0 0 1 0 -0 0 2 3 3 3 2 1 0 -1 -2 -1 1 2 1 1 1 1 1 1 2 3 5 6 6 6 6 5 5 4 4 4 3 2 2 1 -0 -2 -2 -2 -2 -2 -3 -2 -2 -1 1 3 4 4 3 1 -1 -2 -0 0 1 1 3
-0 0 -0 -0 -0 0 1 2 2 1 -0 0 2 3 4 4 4 4 2 0 -1 -1 -0 -0 -1 -0 0 1 1 1 2 4 5 6 6 6 5 5 4 4 4 4 3 2 3 3 2 0 -2 -4 -5 -5 -4 -3 -2 0 3 5 5 4 2 1 -0 -0 1 2 3 4 6
1 2 2 1 1 1 2 2 2 1 1 0 2 3 3 4 5 5 4 3 2 1 -0 -1 -2 -1 -1 0 1 2 3 5 5 6 5 5 4 4 3 2 3 3 2 1 2 4 6 6 2 -2 -5 -5 -5 -4 -3 -0 2 4 4 2 1 -0 -0 1 3 6 7 7 6
2 3 3 3 3 3 3 2 2 2 2 2 4 4 4 4 6 6 6 5 5 3 1 -1 -2 -2 -1 0 1 3 4 5 5 4 4 3 2 2 1 2 2 2 1 -1 -0 3 7 10 9 6 0 -3 -4 -4 -3 -1 -0 1 1 1 -0 -0 -0 -0 2 4 6 5 4
3 3 4 5 6 5 4 1 1 2 4 5 7 7 7 7 7 6 6 6 6 5 3 0 -0 -1 -1 0 2 3 5 5 4 3 1 0 -0 -0 0 0 1 1 0 -1 1 2 4 5 7 8 7 3 -0 -2 -2 -1 -0 -0 -0 -0 -1 -0 0 1 1 3 5 6 7
2 2 3 5 6 6 4 1 1 2 2 3 4 5 6 6 7 6 6 6 7 5 3 1 1 1 1 1 3 4 4 4 2 1 -0 -0 -1 -1 -1 -1 -1 -0 0 2 4 2 -1 -6 -2 4 8 9 3 -1 -2 -0 0 -0 -1 -2 -2 -0 2 3 4 5 7 8 8
-0 1 1 2 2 3 2 2 3 2 1 -1 -2 -3 -2 -1 1 3 5 6 6 4 1 -0 1 1 2 2 3 3 2 1 0 -0 -0 -0 -0 -1 -2 -2 -2 -2 -1 2 3 1 -2 -5 -1 5 9 10 3 -1 -2 -0 -0 -0 -1 -3 -3 -0 2 4 4 5 6 5 5
-2 -1 -0 -0 -1 -1 -0 0 2 4 4 3 0 -3 -5 -5 -3 -0 3 5 3 1 -1 -2 -1 1 2 2 1 1 1 1 -0 -1 -1 0 0 -0 -1 -1 -2 -3 -3 -3 -2 -1 1 2 4 7 9 10 7 3 1 -1 -0 -0 -1 -3 -2 -0 2 3 4 4 4 3 4
-2 -2 -1 -1 -2 -2 -2 -1 0 2 4 5 5 3 -0 -3 -3 -1 1 2 -1 -3 -4 -3 -1 -0 1 1 0 0 0 1 0 -0 -0 0 1 0 -0 -1 -1 -2 -3 -4 -5 -2 1 3 2 2 4 7 10 9 7 4 1 0 -1 -2 -1 1 3 4 4 4 4 5 5
-1 -2 -2 -3 -2 -2 -2 -2 -1 0 2 5 7 7 4 -1 -2 -2 -2 -3 -4 -4 -3 -2 -1 -0 0 0 1 1 1 1 1 1 1 0 0 0 -0 -1 -1 -1 -1 -2 -3 -2 -0 1 -1 -2 -1 2 8 12 14 11 5 2 0 0 2 4 6 7 7 7 7 7 6
-0 -0 -1 -2 -2 -2 -2 -2 -2 -1 1 3 6 7 5 1 -3 -4 -6 -6 -5 -4 -2 -0 -0 0 1 1 2 2 2 1 2 1 1 0 0 -0 -0 -0 1 1 1 -0 -1 -1 -0 -1 -1 -1 -1 0 4 9 12 10 5 2 2 3 6 7 8 8 9 8 7 6 5
-0 0 -0 -1 -2 -2 -2 -2 -1 -1 0 1 3 4 5 2 -1 -4 -6 -7 -5 -2 0 1 1 2 3 3 4 3 3 2 2 1 0 0 0 1 1 2 3 3 2 1 0 -0 -0 -0 1 1 1 1 2 4 5 4 3 3 4 6 8 8 8 7 7 7 6 4 3
-1 -1 -0 -1 -1 -1 -1 -1 -1 -0 0 1 1 2 2 0 -3 -5 -6 -5 -1 1 2 2 3 4 4 5 5 4 3 2 2 1 1 2 2 2 3 3 4 3 2 1 1 1 1 2 3 3 3 2 2 3 3 2 3 4 6 7 7 7 7 6 5 4 3 2 2
-2 -2 -1 -1 -1 -1 -1 -1 -0 0 1 1 0 -1 -2 -4 -4 -4 -2 0 2 3 2 2 3 4 5 5 5 4 4 3 2 2 2 3 4 3 3 3 2 2 1 1 2 3 3 4 3 3 2 2 2 2 2 3 4 6 6 6 6 5 5 4 3 3 2 2 2
-2 -3 -2 -2 -1 -1 -1 -0 1 1 1 1 1 1 0 0 1 2 4 5 5 4 4 4 5 5 5 4 4 4 3 3 3 3 3 3 3 2 2 1 1 1 1 2 2 2 2 2 1 1 1 1 2 2 3 4 5 6 6 5 5 4 4 3 3 3 3 3 3
-2 -3 -3 -3 -2 -1 -0 -0 0 1 1 1 2 2 2 3 4 5 6 7 7 7 8 9 8 7 6 4 3 3 3 4 4 4 4 3 2 1 0 -0 0 0 1 1 1 1 0 -0 -0 0 1 1 2 3 4 4 5 5 5 4 4 3 3 3 2 3 4 4 4
-2 -2 -3 -2 -2 -1 -1 -0 0 0 0 0 0 1 1 1 2 3 4 5 6 7 9 10 10 10 9 8 7 7 6 6 6 5 4 2 1 1 0 -0 -0 -0 -0 -0 -0 -0 -0 0 1 2 2 3 3 4 4 4 4 4 4 4 2 2 2 2 3 4 5 5 4
-2 -2 -2 -2 -2 -2 -2 -1 -0 -0 -1 -1 -1 -0 -0 -0 -0 -0 -0 -0 0 2 3 5 8 11 13 14 13 10 8 6 5 5 4 3 1 0 -0 -0 -0 -0 -0 1 1 2 3 4 4 4 3 3 3 3 3 4 4 4 4 4 3 2 2 2 3 4 5 4 3
-2 -2 -2 -3 -3 -3 -2 -1 -1 -1 -1 0 1 1 1 0 -1 -2 -2 -2 -2 -2 -2 -1 1 5 9 11 9 6 4 3 3 4 3 2 -0 -1 -1 -0 -0 0 1 2 3 4 5 4 3 3 2 2 2 3 4 4 4 4 4 4 3 3 2 2 3 3 3 2 1
-1 -2 -2 -3 -3 -3 -2 -1 -0 0 1 2 2 2 1 1 0 -0 -1 -1 -2 -3 -4 -5 -5 -4 -3 -2 -3 -2 -2 -0 1 2 2 -0 -1 -1 -0 -0 0 1 2 4 4 4 3 3 2 2 2 2 3 4 4 4 5 5 4 4 3 2 1 1 2 1 1 0 0
-1 -1 -2 -2 -2 -3 -2 -2 -1 0 1 2 2 1 2 2 2 1 1 -0 -1 -2 -2 -2 -3 -4 -6 -7 -6 -6 -5 -3 -1 -1 -1 -1 -0 -0 0 1 2 2 3 5 5 4 4 3 3 4 4 3 4 4 4 4 4 3 2 1 0 0 0 1 1 1 1 1 2
-1 -1 -1 -1 -2 -2 -2 -3 -2 -1 -1 -0 0 1 2 3 2 2 2 2 1 1 1 1 -0 -1 -2 -3 -3 -3 -4 -4 -4 -3 -2 -1 0 0 1 1 3 4 5 5 5 4 4 4 4 4 4 4 4 3 3 2 2 1 -0 -1 -1 -0 -0 1 1 1 2 2 2
-1 -1 -1 -1 -2 -2 -3 -2 -2 -2 -1 -1 -0 0 1 1 1 2 2 2 3 3 2 2 1 0 -0 -1 -1 -2 -2 -3 -3 -2 -1 0 0 0 1 2 4 4 5 5 5 5 5 5 5 4 3 3 2 1 0 -0 -1 -1 -1 -1 -0 0 1 1 1 1 1 1 1
-1 -1 -1 -1 -2 -2 -2 -1 -1 -1 -1 -1 -1 -1 -1 -1 -0 0 1 2 2 2 2 2 1 1 -0 -0 -0 -1 -1 -2 -1 -1 -0 -0 -0 1 2 3 4 5 5 5 5 5 5 4 2 2 1 0 -0 -1 -1 -0 -0 -0 0 1 1 1 1 1 1 1 1 1 1
-0 -0 -1 -1 -1 -0 0 1 1 1 0 -0 -1 -1 -1 -1 -0 0 1 2 2 2 2 1 1 1 0 0 0 0 -0 -0 -0 -0 -0 -0 0 2 4 5 5 5 5 5 4 3 2 1 1 0 -0 -1 -1 -0 0 1 1 1 1 1 1 1 1 1 1 1 1 1 0
0 0 0 0 1 2 2 3 2 2 2 1 1 0 0 0 1 1 2 2 2 2 2 1 1 1 1 1 1 1 1 0 0 0 1 2 3 4 5 5 5 4 3 2 1 0 -1 -1 -1 -1 -1 -0 0 1 1 1 1 1 1 1 2 2 2 2 1 1 0 -0 -0
1 1 1 2 2 2 3 3 2 2 2 1 1 1 1 1 2 2 2 2 3 2 2 2 1 1 1 1 2 2 2 2 2 3 3 4 4 4 4 3 2 1 0 -0 -1 -2 -2 -2 -1 -1 -0 1 1 1 1 2 2 2 2 2 2 1 1 1 1 0 -0 -1 -0
2 1 1 1 1 1 1 1 1 0 0 0 0 1 1 2 2 2 3 3 3 3 3 2 2 2 2 3 4 4 5 5 5 5 4 4 3 2 1 -0 -1 -1 -2 -2 -2 -2 -1 -0 0 1 2 2 2 2 2 2 2 2 1 1 1 1 1 0 -0 -0 -1 -0 0
2 1 1 -0 -0 -0 -1 -1 -1 -1 -0 -0 0 1 2 2 2 3 4 4 4 3 3 3 4 4 4 4 4 5 5 5 4 3 2 1 -0 -1 -2 -2 -2 -2 -1 -1 -0 0 1 1 2 2 2 2 2 2 2 2 1 1 1 1 1 0 0 -0 -0 -0 0 1 2
1 1 0 -0 -1 -1 -1 -1 -1 -1 -0 0 1 2 2 3 4 4 4 4 3 3 3 4 3 3 3 3 3 3 3 2 1 0 -1 -2 -2 -2 -2 -1 -1 -0 0 1 1 2 2 2 2 2 1 1 1 1 1 0 0 0 -0 0 0 0 1 1 2 2 2 1 2
-1 -1 -1 -1 -1 -1 -1 -0 -0 0 1 1 2 2 2 4 4 4 3 2 2 2 2 2 2 2 2 2 1 1 0 -0 -1 -1 -2 -1 -1 -0 0 1 1 1 2 1 1 1 1 1 0 0 -0 -0 -0 -0 -0 -0 -0 -0 0 1 1 2 2 2 3 3 2 1 1
Height
3077 3077 3077 3076 3076 3076 3076 3076 3076 3076 3077 3077 3077 3077 3077 3077 3077 3077 3078 3078 3078 3078 3079 3080 3081 3081 3082 3083 3083 3084 3084 3085 3085 3086 3086 3087 3087 3087 3087 3088 3088 3089 3090 3090 3091 3091 3092 3093 3094 3094 3094 3095 3095 3094 3094 3094 3094 3094 3093 3094 3095 3095 3095 3095 3095 3094 3095 3095 3094
3075 3074 3074 3074 3074 3074 3074 3074 3074 3075 3075 3075 3075 3075 3075 3075 3075 3075 3075 3075 3076 3076 3077 3077 3078 3078 3079 3079 3080 3081 3081 3082 3083 3083 3083 3084 3084 3084 3084 3085 3085 3086 3086 3087 3088 3088 3089 3090 3091 3091 3090 3091 3091 3091 3090 3091 3091 3091 3091 3091 3092 3092 3093 3092 3092 3092 3092 3092 3092
3073 3073 3072 3072 3072 3072 3072 3072 3073 3073 3073 3073 3073 3073 3073 3073 3073 3073 3073 3073 3073 3074 3074 3074 3075 3076 3076 3077 3077 3078 3078 3079 3080 3080 3081 3081 3081 3081 3082 3083 3083 3083 3083 3084 3084 3085 3086 3086 3086 3086 3087 3087 3088 3088 3088 3088 3088 3088 3088 3088 3089 3089 3089 3089 3088 3088 3088 3089 3089
3070 3070 3070 3070 3070 3070 3070 3070 3070 3071 3071 3071 3070 3070 3070 3070 3070 3071 3071 3071 3071 3071 3072 3072 3073 3073 3073 3074 3074 3075 3076 3076 3077 3077 3078 3078 3078 3079 3079 3080 3080 3080 3080 3080 3081 3081 3081 3081 3081 3082 3083 3083 3084 3085 3086 3086 3086 3086 3086 3086 3087 3087 3087 3086 3086 3086 3085 3085 3085
3068 3068 3068 3068 3068 3068 3068 3068 3068 3068 3068 3068 3068 3068 3068 3068 3068 3068 3068 3068 3069 3069 3069 3070 3070 3070 3070 3071 3072 3073 3073 3073 3074 3074 3075 3075 3076 3076 3077 3077 3078 3078 3077 3077 3078 3077 3077 3077 3078 3078 3079 3081 3082 3083 3083 3083 3084 3084 3083 3084 3084 3084 3084 3083 3084 3084 3084 3083 3083
3066 3066 3066 3066 3065 3065 3065 3066 3066 3066 3066 3066 3065 3065 3065 3065 3066 3066 3066 3066 3066 3067 3067 3067 3067 3068 3068 3068 3069 3070 3070 3071 3071 3072 3073 3073 3073 3074 3074 3075 3075 3075 3075 3074 3074 3074 3074 3074 3074 3075 3076 3078 3079 3080 3080 3081 3082 3082 3081 3081 3081 3081 3081 3081 3081 3081 3081 3081 3081
3063 3063 3063 3063 3063 3063 3063 3063 3063 3063 3063 3063 3063 3063 3063 3063 3063 3063 3063 3064 3064 3064 3065 3065 3065 3065 3066 3066 3067 3067 3068 3068 3069 3069 3070 3071 3071 3072 3072 3073 3073 3073 3073 3072 3072 3072 3072 3072 3073 3073 3074 3075 3076 3077 3078 3078 3079 3079 3079 3078 3078 3079 3079 3079 3078 3078 3078 3078 3079
3060 3060 3060 3060 3060 3060 3060 3061 3061 3061 3060 3060 3060 3060 3060 3060 3060 3060 3061 3061 3061 3062 3062 3062 3063 3063 3063 3064 3064 3065 3065 3066 3067 3067 3068 3068 3069 3069 3070 3070 3070 3070 3070 3070 3070 3069 3070 3070 3070 3071 3072 3073 3073 3074 3075 3076 3076 3076 3076 3076 3076 3076 3076 3076 3076 3076 3076 3076 3076
3058 3058 3058 3058 3058 3058 3058 3058 3058 3058 3058 3058 3058 3058 3058 3058 3058 3058 3058 3058 3059 3059 3060 3060 3060 3060 3061 3061 3062 3062 3063 3063 3064 3065 3065 3066 3067 3067 3067 3068 3068 3068 3068 3067 3067 3067 3067 3068 3068 3068 3069 3070 3071 3071 3072 3073 3073 3073 3073 3073 3073 3073 3073 3073 3073 3073 3073 3073 3073
3055 3055 3055 3055 3055 3055 3055 3055 3055 3055 3055 3055 3055 3055 3055 3055 3055 3055 3055 3056 3056 3057 3057 3057 3058 3058 3058 3058 3059 3060 3060 3061 3061 3062 3063 3063 3064 3064 3065 3065 3065 3065 3065 3065 3065 3064 3065 3065 3065 3066 3067 3068 3068 3068 3069 3069 3070 3070 3069 3069 3069 3070 3070 3070 3070 3070 3070 3070 3070
3052 3052 3052 3052 3052 3052 3052 3052 3052 3052 3053 3053 3053 3053 3053 3053 3053 3053 3053 3053 3054 3054 3054 3055 3055 3056 3056 3056 3057 3057 3058 3058 3059 3059 3060 3060 3061 3062 3062 3063 3063 3063 3062 3062 3062 3063 3063 3063 3063 3063 3064 3065 3065 3066 3066 3067 3067 3067 3067 3067 3067 3067 3067 3068 3068 3068 3068 3068 3068
3049 3049 3049 3049 3049 3049 3049 3049 3049 3049 3050 3050 3050 3050 3050 3050 3050 3050 3050 3051 3051 3051 3052 3052 3053 3053 3053 3054 3054 3055 3055 3056 3056 3057 3057 3058 3058 3058 3059 3059 3059 3059 3059 3060 3060 3061 3061 3061 3061 3061 3062 3062 3063 3063 3063 3063 3064 3064 3064 3064 3064 3064 3064 3064 3064 3065 3065 3065 3065
3046 3047 3047 3047 3046 3046 3046 3046 3046 3046 3047 3047 3047 3047 3047 3047 3048 3048 3048 3048 3048 3049 3049 3050 3050 3051 3051 3052 3052 3053 3053 3053 3054 3054 3054 3054 3055 3055 3056 3056 3057 3057 3057 3057 3058 3058 3059 3058 3058 3058 3059 3059 3060 3060 3060 3061 3061 3061 3061 3061 3061 3062 3062 3061 3061 3061 3061 3062 3062
3043 3043 3043 3043 3043 3043 3043 3043 3043 3043 3043 3043 3043 3043 3044 3044 3045 3045 3045 3046 3046 3046 3047 3048 3048 3048 3049 3049 3050 3050 3051 3051 3051 3051 3051 3051 3052 3052 3053 3053 3053 3054 3054 3055 3055 3056 3056 3056 3056 3056 3056 3056 3057 3058 3058 3058 3058 3058 3058 3059 3059 3059 3059 3059 3058 3058 3058 3058 3058
3040 3040 3040 3040 3040 3040 3040 3040 3040 3040 3040 3040 3040 3040 3041 3042 3042 3043 3043 3043 3043 3044 3044 3045 3045 3046 3046 3047 3047 3048 3048 3048 3048 3048 3048 3048 3049 3049 3050 3050 3051 3052 3052 3053 3053 3053 3053 3053 3053 3054 3054 3054 3054 3055 3055 3056 3056 3056 3056 3056 3057 3057 3057 3056 3056 3056 3055 3055 3055
3036 3036 3036 3036 3036 3036 3036 3036 3036 3036 3036 3036 3036 3036 3037 3038 3039 3040 3040 3040 3040 3041 3042 3042 3043 3043 3044 3044 3045 3045 3045 3045 3045 3045 3045 3046 3046 3047 3048 3048 3049 3049 3050 3050 3051 3051 3051 3051 3052 3052 3052 3052 3052 3052 3053 3053 3053 3053 3054 3054 3054 3054 3054 3054 3054 3054 3053 3053 3053
3033 3033 3033 3033 3033 3033 3033 3033 3033 3033 3033 3033 3033 3033 3033 3034 3035 3036 3037 3037 3038 3038 3038 3039 3040 3041 3041 3042 3042 3042 3043 3043 3043 3043 3043 3044 3044 3045 3045 3046 3046 3047 3047 3048 3048 3048 3049 3050 3050 3049 3049 3050 3050 3050 3050 3050 3051 3051 3051 3051 3052 3052 3052 3052 3052 3052 3051 3051 3051
3029 3029 3029 3029 3029 3029 3029 3029 3029 3030 3030 3031 3031 3031 3031 3031 3031 3033 3033 3034 3035 3035 3036 3037 3038 3038 3039 3039 3039 3039 3040 3040 3040 3041 3041 3042 3042 3043 3043 3043 3044 3044 3045 3045 3046 3046 3047 3047 3047 3047 3047 3048 3048 3048 3048 3048 3048 3048 3048 3049 3049 3050 3050 3050 3049 3049 3049 3048 3048
3026 3026 3026 3026 3026 3026 3026 3026 3026 3027 3027 3028 3028 3028 3028 3028 3028 3029 3030 3031 3032 3033 3033 3034 3035 3036 3036 3036 3037 3037 3038 3038 3038 3039 3040 3040 3040 3041 3041 3042 3042 3042 3043 3043 3044 3044 3044 3044 3044 3045 3045 3045 3045 3045 3045 3045 3045 3046 3046 3046 3047 3047 3047 3047 3047 3046 3046 3046 3045
3024 3023 3023 3023 3023 3023 3023 3023 3023 3024 3024 3025 3025 3024 3024 3025 3025 3026 3027 3028 3030 3031 3031 3032 3032 3033 3033 3034 3034 3035 3036 3036 3037 3038 3038 3038 3039 3039 3039 3040 3040 3040 3041 3041 3041 3042 3042 3042 3042 3042 3042 3042 3042 3043 3043 3043 3043 3043 3043 3044 3044 3044 3044 3044 3044 3043 3043 3043 3042
3022 3021 3021 3021 3020 3020 3021 3021 3021 3021 3022 3022 3021 3020 3020 3022 3023 3024 3025 3026 3028 3028 3029 3029 3030 3030 3031 3032 3032 3033 3033 3034 3035 3036 3036 3037 3037 3037 3037 3038 3038 3038 3038 3039 3039 3039 3039 3040 3040 3040 3040 3040 3040 3040 3040 3041 3041 3041 3041 3042 3042 3041 3041 3041 3041 3040 3040 3040 3039
3020 3019 3019 3018 3018 3018 3018 3018 3019 3019 3019 3019 3019 3018 3019 3020 3022 3023 3024 3025 3026 3026 3027 3027 3028 3028 3029 3029 3030 3031 3032 3032 3033 3033 3034 3034 3035 3035 3035 3036 3036 3036 3036 3037 3037 3037 3037 3037 3038 3038 3038 3038 3038 3037 3037 3038 3038 3038 3039 3038 3038 3038 3038 3038 3038 3038 3037 3037 3037
3018 3017 3017 3017 3016 3016 3016 3016 3017 3017 3017 3018 3018 3018 3018 3019 3021 3022 3022 3023 3024 3024 3025 3025 3026 3026 3027 3027 3028 3029 3029 3030 3031 3031 3032 3032 3033 3033 3033 3033 3034 3034 3034 3034 3034 3034 3035 3035 3035 3035 3035 3035 3035 3035 3035 3035 3036 3036 3036 3036 3036 3035 3035 3035 3035 3035 3035 3034 3034
3015 3015 3015 3015 3015 3014 3014 3015 3015 3015 3016 3016 3017 3017 3018 3018 3019 3020 3021 3021 3022 3023 3023 3023 3024 3024 3025 3025 3026 3027 3027 3028 3028 3029 3030 3030 3030 3031 3031 3031 3031 3031 3032 3032 3032 3032 3032 3033 3033 3033 3033 3033 3033 3033 3033 3033 3033 3033 3033 3033 3033 3032 3032 3032 3032 3032 3032 3032 3032
3013 3013 3013 3013 3013 3013 3013 3013 3013 3014 3014 3015 3015 3016 3016 3017 3018 3018 3019 3019 3020 3020 3021 3021 3022 3022 3023 3023 3024 3024 3025 3026 3026 3027 3027 3028 3028 3028 3028 3028 3028 3029 3029 3029 3029 3029 3029 3030 3030 3030 3030 3030 3030 3030 3030 3030 3030 3030 3029 3029 3029 3029 3030 3030 3030 3030 3030 3030 3030
3012 3011 3011 3011 3011 3011 3011 3011 3012 3012 3013 3013 3013 3014 3015 3015 3016 3016 3017 3018 3018 3018 3018 3018 3019 3020 3021 3021 3022 3022 3023 3023 3024 3025 3025 3025 3025 3025 3026 3026 3026 3026 3026 3026 3027 3027 3027 3027 3028 3028 3028 3028 3028 3028 3027 3027 3027 3027 3027 3027 3027 3027 3028 3028 3028 3028 3028 3028 3028
3010 3010 3009 3009 3009 3009 3009 3009 3010 3010 3011 3011 3012 3012 3013 3013 3014 3014 3015 3015 3015 3016 3016 3017 3017 3017 3018 3019 3019 3020 3021 3022 3022 3022 3023 3023 3023 3023 3023 3023 3023 3023 3023 3024 3024 3025 3025 3025 3025 3025 3025 3025 3025 3024 3024 3024 3024 3024 3024 3025 3025 3025 3025 3025 3026 3026 3026 3026 3026
3009 3008 3008 3008 3008 3008 3008 3008 3008 3008 3008 3009 3009 3010 3010 3011 3011 3012 3012 3013 3013 3014 3014 3015 3015 3015 3016 3016 3017 3018 3018 3019 3019 3020 3020 3020 3020 3020 3020 3020 3021 3021 3022 3022 3023 3023 3023 3023 3023 3022 3022 3022 3022 3022 3022 3022 3022 3022 3022 3023 3023 3023 3023 3023 3024 3024 3024 3025 3025
3008 3007 3007 3007 3006 3006 3006 3006 3006 3006 3006 3007 3007 3008 3008 3008 3009 3009 3010 3010 3011 3011 3012 3013 3013 3013 3013 3014 3014 3015 3016 3016 3017 3017 3017 3017 3018 3018 3018 3018 3019 3019 3019 3020 3020 3020 3020 3020 3019 3019 3019 3019 3019 3019 3019 3020 3020 3020 3021 3021 3021 3022 3022 3022 3023 3023 3023 3023 3024
3006 3006 3006 3005 3005 3005 3005 3005 3005 3005 3005 3005 3005 3006 3006 3006 3007 3007 3008 3008 3009 3009 3010 3010 3011 3011 3011 3011 3012 3013 3013 3014 3014 3014 3015 3015 3015 3016 3016 3016 3016 3017 3017 3017 3017 3017 3017 3017 3017 3017 3017 3017 3017 3018 3018 3018 3018 3019 3019 3019 3020 3020 3021 3021 3022 3022 3022 3022 3022
3005 3004 3004 3004 3004 3004 3004 3004 3004 3004 3004 3004 3004 3004 3004 3004 3005 3005 3005 3006 3007 3007 3008 3008 3009 3009 3010 3010 3011 3011 3012 3012 3012 3013 3013 3013 3013 3014 3014 3014 3014 3014 3014 3014 3014 3014 3014 3014 3014 3015 3015 3015 3016 3016 3016 3017 3017 3018 3018 3018 3019 3019 3020 3020 3020 3021 3021 3021 3020
3003 3003 3003 3003 3003 3002 3002 3002 3003 3003 3003 3003 3003 3003 3003 3003 3003 3003 3004 3004 3005 3006 3007 3007 3008 3008 3009 3009 3010 3010 3011 3011 3011 3011 3012 3012 3012 3012 3012 3012 3012 3012 3012 3012 3012 3012 3012 3013 3013 3013 3014 3014 3014 3015 3015 3016 3016 3017 3018 3018 3018 3019 3019 3019 3019 3019 3019 3019 3018
3002 3002 3001 3001 3001 3001 3001 3001 3001 3001 3001 3001 3001 3001 3002 3002 3002 3002 3003 3003 3004 3005 3005 3006 3007 3008 3008 3008 3009 3009 3010 3010 3010 3010 3010 3010 3010 3010 3010 3010 3010 3010 3010 3010 3010 3011 3011 3011 3012 3012 3013 3013 3014 3014 3015 3015 3016 3016 3017 3017 3018 3018 3018 3018 3018 3018 3018 3017 3017
3001 3000 3000 2999 2999 2999 2999 2999 2999 2999 3000 3000 3000 3000 3001 3001 3001 3002 3002 3003 3003 3004 3004 3005 3006 3006 3007 3007 3008 3008 3008 3009 3009 3009 3009 3009 3008 3008 3008 3008 3008 3008 3008 3009 3009 3010 3010 3010 3011 3012 3012 3013 3013 3014 3014 3015 3015 3016 3016 3016 3016 3017 3017 3016 3016 3016 3015 3015 3014
2999 2999 2998 2998 2998 2998 2997 2998 2998 2998 2998 2999 2999 2999 3000 3000 3001 3001 3002 3002 3003 3003 3003 3004 3005 3005 3006 3006 3006 3006 3007 3007 3007 3007 3007 3007 3007 3007 3007 3007 3007 3007 3008 3008 3008 3009 3009 3010 3010 3011 3012 3012 3013 3013 3014 3014 3014 3015 3015 3015 3015 3015 3015 3014 3014 3013 3013 3012 3011
2998 2998 2998 2997 2997 2997 2997 2997 2997 2997 2997 2998 2998 2998 2999 2999 3000 3000 3000 3001 3001 3002 3002 3003 3003 3004 3004 3004 3005 3005 3005 3005 3005 3005 3005 3005 3005 3005 3006 3006 3006 3007 3007 3008 3008 3008 3009 3010 3010 3011 3011 3012 3012 3013 3013 3013 3014 3014 3014 3014 3014 3013 3013 3012 3012 3011 3010 3009 3008
2998 2998 2997 2997 2997 2997 2996 2996 2996 2997 2997 2997 2997 2998 2998 2998 2998 2999 2999 3000 3000 3001 3001 3002 3002 3003 3003 3003 3003 3003 3003 3003 3003 3004 3004 3004 3004 3005 3005 3005 3006 3006 3007 3007 3008 3008 3009 3009 3010 3011 3011 3012 3012 3012 3013 3013 3013 3013 3013 3012 3012 3012 3011 3010 3009 3008 3008 3007 3006
2997 2997 2997 2997 2997 2996 2996 2996 2996 2996 2996 2997 2997 2997 2997 2998 2998 2998 2998 2999 2999 3000 3000 3001 3001 3001 3001 3001 3001 3002 3002 3003 3003 3003 3004 3004 3004 3004 3004 3005 3005 3006 3007 3007 3008 3008 3009 3010 3010 3010 3011 3011 3011 3012 3012 3012 3012 3011 3011 3010 3010 3009 3008 3008 3007 3006 3005 3004 3003
2996 2996 2996 2996 2996 2996 2996 2996 2996 2996 2996 2996 2997 2997 2997 2997 2997 2998 2998 2998 2998 2999 2999 2999 3000 3000 3000 3000 3001 3001 3002 3003 3003 3003 3004 3004 3004 3004 3004 3005 3006 3007 3007 3008 3008 3009 3009 3010 3010 3010 3010 3011 3011 3011 3011 3010 3010 3010 3009 3008 3008 3007 3006 3005 3004 3003 3003 3002 3001
2996 2996 2996 2996 2996 2996 2996 2996 2996 2996 2996 2997 2997 2997 2997 2997 2997 2997 2997 2998 2998 2998 2999 2999 2999 3000 3000 3001 3001 3002 3003 3003 3003 3003 3003 3004 3004 3005 3005 3006 3006 3007 3008 3008 3008 3009 3009 3009 3010 3010 3010 3010 3010 3010 3009 3009 3008 3008 3007 3007 3006 3005 3004 3003 3002 3001 3000 2999 2998
2996 2996 2996 2996 2996 2996 2996 2996 2996 2996 2997 2997 2997 2997 2997 2997 2996 2997 2997 2998 2998 2999 2999 3000 3000 3001 3002 3002 3002 3003 3003 3003 3003 3003 3004 3004 3005 3006 3006 3007 3007 3008 3008 3008 3008 3008 3009 3009 3009 3009 3009 3009 3008 3008 3008 3008 3007 3006 3005 3004 3003 3003 3002 3001 2999 2998 2997 2996 2994